Regional Weather Roundup
Issued by NWS

Home | Current Version | Previous Version | Text Only | Print | Product List | Glossary Off
Versions: 1 2 3 4 5 6 7 8 9 10 11 12 13 14 15 16 17 18 19 20 21 22 23 24 25 26 27

000
ASUS45 KCYS 250110
RWRWY

WYOMING REGIONAL WEATHER ROUNDUP
NATIONAL WEATHER SERVICE CHEYENNE WY
700 PM MDT THU APR 24 2014

NOTE:  "FAIR" INDICATES FEW OR NO CLOUDS BELOW 12,000 FEET
WITH NO SIGNIFICANT WEATHER AND/OR OBSTRUCTIONS TO VISIBILITY.

WYZ001-250200-
YELLOWSTONE NATIONAL PARK

CITY           SKY/WX    TMP DP  RH WIND       PRES   REMARKS
LK YELLOWSTONE   N/A     31  30  96 VRB3      29.95S
W YELLOWSTONE  NOT AVBL

$$
WYZ002>013-054>058-071-098>099-250200-
NORTHERN WYOMING

CITY           SKY/WX    TMP DP  RH WIND       PRES   REMARKS
JACKSON        NOT AVBL
CODY           PTSUNNY   52  27  37 W21G32    29.80S
GREYBULL       MOSUNNY   61  22  22 W18       29.77R
WORLAND        PTSUNNY   60  23  24 N14       29.77R
SHERIDAN         N/A     50  23  34 SW21G31     N/A
BUFFALO        CLOUDY    53  25  33 E6        29.78R
GILLETTE       CLOUDY    56  24  29 NE8       29.77R
HULETT         MOCLDY    54  25  32 N5        29.78
NEWCASTLE      FAIR      59  18  20 MISG      29.75

$$
WYZ014>020-022>026-101>103-250200-
CENTRAL WYOMING

CITY           SKY/WX    TMP DP  RH WIND       PRES   REMARKS
BIG PINEY      CLOUDY    46  20  35 W7        30.00R
PINEDALE       CLOUDY    41  27  56 N7        30.00S
DUBOIS         CLOUDY    41  23  48 W16G25    29.93R
LANDER         PTSUNNY   55  20  25 W17G32    29.85R
RIVERTON       CLOUDY    55  18  23 NW22G31   29.86R
CASPER         CLOUDY    58  22  24 W21G30    29.79S
DOUGLAS        PTCLDY    60  24  25 W13       29.78F

$$
WYZ021-027>030-104>119-250200-
SOUTHERN WYOMING

CITY           SKY/WX    TMP DP  RH WIND       PRES   REMARKS
EVANSTON       PTSUNNY   52  22  30 W16       30.00S
KEMMERER       MOCLDY    46  19  34 W20G28    30.00S
FORT BRIDGER   FAIR      51  22  31 W18G31    30.01S
ROCK SPRINGS   NOT AVBL
DIXON          CLOUDY    54  20  26 W16G22    29.99S
RAWLINS        CLOUDY    53  20  27 W30G39    29.91R
SARATOGA       CLOUDY    52  18  25 SW16G23   29.96S
LARAMIE        MOCLDY    50  16  25 W15       29.94R
CHEYENNE       CLOUDY    57  18  21 W16       29.90R
TORRINGTON     CLOUDY    62  23  22 W8        29.79S
PINE BLUFFS    CLOUDY    59  21  23 W6        29.88R

$$



USA.gov is the U.S. government's official web portal to all federal, state and local government web resources and services.